McComb, MS

7:02 AM CDT on April 27, 2017 (GMT -0500)
McComb-Pike County-Lewis

Weather History for KMCB - July, 2014

Change the Weather History Date:

Saturday, July 19, 2014

  Actual Average Record
Temperature  
Mean Temperature 77 °F -  
Max Temperature 81 °F 91 °F 98 °F (1965)
Min Temperature 73 °F 69 °F 65 °F (1974)
Cooling Degree Days 12    
Growing Degree Days 27 (Base 50)    
Moisture  
Dew Point 73 °F    
Average Humidity 91    
Maximum Humidity 97    
Minimum Humidity 77    
Precipitation  
Precipitation 0.78 in - - ()
Sea Level Pressure  
Sea Level Pressure 30.00 in    
Wind  
Wind Speed 4 mph (West)    
Max Wind Speed 10 mph    
Max Gust Speed -    
Visibility 5 miles    
Events Rain    
Averages and records for this station are not official NWS values.
T = Trace of Precipitation, MM = Missing Value Source: NWS Daily Summary

Daily Weather History Graph

Daily Weather History Graph

Search for Another Location

Airport or City:

Trip Planner

Search our weather history database for the weather conditions in past years. The results will help you decide how hot, cold, wet, or windy it might be!

Date:

Astronomy

Jul. 19, 2014 Rise Set
Actual Time 6:10 AM CDT 8:05 PM CDT
Civil Twilight 5:43 AM CDT 8:32 PM CDT
Nautical Twilight 5:10 AM CDT 9:05 PM CDT
Astronomical Twilight 4:35 AM CDT 9:39 PM CDT
Moon 12:34 AM CDT (7/19) 1:56 PM CDT (7/19)
Length of Visible Light 14h 48m
Length of Day
13h 54m
Last Quarter, 43% of the Moon is Illuminated
Jul 19
Last Quarter
Jul 26
New
Aug 3
First Quarter
Aug 10
Full
Aug 17
Last Quarter

Hourly Weather History & Observations

Time (CDT) Temp. Heat Index Dew Point Humidity Pressure Visibility Wind Dir Wind Speed Gust Speed Precip Events Conditions
12:13 AM 73.9 °F - 72.0 °F 93% 29.99 in 3.0 mi South 8.1 mph - 0.04 in Rain Light Rain
12:19 AM 73.9 °F - 72.0 °F 93% 29.99 in 1.8 mi South 8.1 mph - 0.11 in Rain Heavy Rain
12:36 AM 73.9 °F - 72.0 °F 93% 29.99 in 2.5 mi South 9.2 mph - 0.24 in Rain Light Rain
12:42 AM 73.9 °F - 72.0 °F 93% 29.99 in 5.0 mi South 10.4 mph - 0.25 in Rain Light Rain
12:50 AM 73.4 °F - 71.6 °F 94% 29.99 in 5.0 mi South 6.9 mph - 0.25 in Rain Light Rain
12:53 AM 73.9 °F - 72.0 °F 93% 29.98 in 5.0 mi South 8.1 mph - 0.25 in Rain Light Rain
1:53 AM 73.0 °F - 72.0 °F 96% 29.96 in 5.0 mi Calm Calm - 0.00 in   Overcast
2:53 AM 73.0 °F - 72.0 °F 96% 29.95 in 4.0 mi SSW 5.8 mph - N/A   Overcast
3:53 AM 73.0 °F - 72.0 °F 96% 29.95 in 3.0 mi West 3.5 mph - N/A   Overcast
4:53 AM 73.9 °F - 72.0 °F 93% 29.96 in 4.0 mi Calm Calm - N/A   Overcast
5:25 AM 73.0 °F - 72.0 °F 96% 29.98 in 2.5 mi Calm Calm - N/A   Overcast
5:53 AM 73.9 °F - 72.0 °F 93% 29.98 in 3.0 mi Calm Calm - N/A   Overcast
6:10 AM 73.9 °F - 72.0 °F 93% 29.99 in 4.0 mi Calm Calm - N/A   Mostly Cloudy
6:24 AM 73.0 °F - 72.0 °F 96% 29.99 in 3.0 mi Calm Calm - N/A   Scattered Clouds
6:29 AM 73.0 °F - 71.1 °F 93% 29.98 in 2.5 mi Calm Calm - N/A   Scattered Clouds
6:51 AM 73.4 °F - 71.6 °F 94% 29.99 in 1.8 mi Calm Calm - N/A   Mostly Cloudy
6:53 AM 73.0 °F - 72.0 °F 96% 29.98 in 1.8 mi Calm Calm - N/A   Mostly Cloudy
6:56 AM 73.0 °F - 72.0 °F 96% 30.00 in 2.0 mi Calm Calm - N/A   Mostly Cloudy
7:19 AM 73.9 °F - 72.0 °F 93% 30.00 in 3.0 mi Calm Calm - N/A   Overcast
7:34 AM 73.9 °F - 72.0 °F 93% 30.00 in 3.0 mi NW 4.6 mph - N/A   Overcast
7:49 AM 73.4 °F - 71.6 °F 94% 30.00 in 5.0 mi NW 4.6 mph - N/A   Overcast
7:53 AM 73.9 °F - 72.0 °F 93% 29.99 in 5.0 mi WNW 4.6 mph - N/A   Overcast
8:29 AM 73.9 °F - 72.0 °F 93% 30.01 in 4.0 mi NW 3.5 mph - N/A   Overcast
8:53 AM 75.0 °F - 72.0 °F 90% 30.01 in 5.0 mi West 3.5 mph - N/A   Overcast
9:10 AM 75.0 °F - 72.0 °F 90% 30.02 in 5.0 mi NW 4.6 mph - N/A   Overcast
9:53 AM 75.0 °F - 72.0 °F 90% 30.01 in 6.0 mi Calm Calm - N/A   Overcast
10:53 AM 75.9 °F - 72.0 °F 87% 30.02 in 6.0 mi Calm Calm - N/A   Overcast
11:17 AM 77.0 °F - 72.0 °F 84% 30.03 in 6.0 mi NW 5.8 mph - N/A   Haze
11:53 AM 75.9 °F - 72.0 °F 87% 30.02 in 6.0 mi NNW 5.8 mph - 0.00 in   Overcast
12:15 PM 77.0 °F - 72.0 °F 84% 30.03 in 7.0 mi Calm Calm - N/A   Overcast
12:26 PM 75.9 °F - 73.0 °F 91% 30.04 in 2.0 mi SSE 6.9 mph - 0.06 in Rain Light Rain
12:31 PM 75.0 °F - 73.0 °F 94% 30.03 in 0.8 mi Variable 3.5 mph - 0.14 in Rain Heavy Rain
12:53 PM 75.0 °F - 73.9 °F 96% 30.02 in 2.0 mi Calm Calm - 0.24 in Rain Light Rain
1:01 PM 75.0 °F - 73.0 °F 94% 30.03 in 1.0 mi Variable 3.5 mph - 0.07 in Rain Heavy Rain
1:21 PM 75.9 °F - 73.0 °F 91% 30.02 in 2.5 mi SW 4.6 mph - 0.13 in Rain Rain
1:24 PM 75.9 °F - 73.9 °F 94% 30.02 in 3.0 mi SSW 4.6 mph - 0.13 in Rain Light Rain
1:37 PM 75.9 °F - 73.9 °F 94% 30.02 in 9.0 mi SSW 5.8 mph - 0.13 in Rain Light Rain
1:53 PM 77.0 °F - 73.9 °F 90% 30.01 in 10.0 mi WSW 5.8 mph - 0.13 in   Overcast
2:05 PM 77.0 °F - 73.9 °F 90% 30.02 in 9.0 mi NW 6.9 mph - N/A   Overcast
2:25 PM 78.1 °F - 73.9 °F 87% 30.01 in 10.0 mi NNE 4.6 mph - 0.00 in   Overcast
2:27 PM 78.1 °F - 73.9 °F 87% 30.00 in 10.0 mi North 3.5 mph - 0.00 in   Overcast
2:53 PM 79.0 °F - 73.0 °F 82% 29.99 in 10.0 mi West 4.6 mph - 0.00 in   Overcast
3:20 PM 80.1 °F 84.2 °F 73.0 °F 79% 30.00 in 10.0 mi Calm Calm - N/A   Mostly Cloudy
3:44 PM 81.0 °F 85.8 °F 73.0 °F 77% 29.99 in 10.0 mi Calm Calm - N/A   Overcast
3:53 PM 80.1 °F 84.2 °F 73.0 °F 79% 29.98 in 10.0 mi Calm Calm - N/A   Overcast
4:06 PM 80.1 °F 84.2 °F 73.0 °F 79% 29.99 in 7.0 mi Calm Calm - 0.00 in Rain Light Rain
4:19 PM 79.0 °F - 73.9 °F 84% 30.00 in 4.0 mi West 3.5 mph - 0.01 in Rain Light Rain
4:25 PM 78.1 °F - 75.0 °F 90% 30.00 in 1.8 mi WSW 3.5 mph - 0.04 in Rain Rain
4:48 PM 77.0 °F - 75.2 °F 94% 29.99 in 5.0 mi SSE 5.8 mph - 0.08 in Rain Light Rain
4:53 PM 77.0 °F - 75.0 °F 94% 29.98 in 7.0 mi Variable 4.6 mph - 0.08 in Rain Light Rain
5:53 PM 78.1 °F - 73.0 °F 84% 29.96 in 10.0 mi East 3.5 mph - 0.00 in   Mostly Cloudy
6:36 PM 77.0 °F - 73.9 °F 90% 29.98 in 2.5 mi NNW 4.6 mph - 0.02 in Rain Rain
6:51 PM 75.2 °F - 73.4 °F 94% 29.98 in 5.0 mi NNW 4.6 mph - 0.04 in Rain Light Rain
6:53 PM 75.9 °F - 73.9 °F 94% 29.96 in 5.0 mi NNW 4.6 mph - 0.04 in Rain Light Rain
7:53 PM 75.9 °F - 73.9 °F 94% 29.97 in 10.0 mi Calm Calm - 0.00 in   Overcast
8:15 PM 75.9 °F - 73.9 °F 94% 29.99 in 3.0 mi WNW 3.5 mph - 0.03 in Rain Heavy Rain
8:22 PM 75.9 °F - 73.9 °F 94% 29.99 in 3.0 mi Calm Calm - 0.04 in Rain Light Rain
8:34 PM 75.9 °F - 73.9 °F 94% 29.99 in 10.0 mi Calm Calm - 0.04 in   Overcast
8:53 PM 75.9 °F - 73.9 °F 94% 29.98 in 8.0 mi Calm Calm - 0.04 in   Overcast
10:24 PM 75.0 °F - 73.9 °F 96% 30.01 in 10.0 mi NW 5.8 mph - N/A   Overcast
10:53 PM 75.0 °F - 73.0 °F 94% 30.00 in 10.0 mi NW 4.6 mph - N/A   Overcast
11:20 PM 73.9 °F - 73.0 °F 97% 30.01 in 9.0 mi NW 4.6 mph - N/A   Overcast
11:53 PM 73.9 °F - 72.0 °F 93% 30.00 in 10.0 mi NNW 4.6 mph - N/A   Scattered Clouds